FW5399 Weather Reports


Display with metric or nautical units.
time (UTC)temp
F
wind
direction
speed
MPH
gust
MPH
rain 1hr
in
rain 24hr
in
rain mn
in
humidity
%
barometer
mb
20260505153338 55 331 0.0 1.0 0.00 0.09 0.09 99 1030.5
20260505152832 55 331 0.0 1.0 0.00 0.09 0.09 99 1030.6
20260505152326 55 343 0.0 0.0 0.00 0.09 0.09 99 1030.7
20260505151820 55 343 0.0 1.0 0.01 0.09 0.09 99 1030.7
20260505151654 55 343 0.0 1.0 0.01 0.09 0.09 99 1030.7
20260505150808 55 332 0.0 0.0 0.01 0.09 0.09 99 1030.8
20260505150310 55 333 0.0 0.0 0.01 0.09 0.09 99 1030.9
20260505140205 56 326 0.0 0.0 0.06 0.09 0.09 99 1031.5
20260505130203 55 288 0.0 0.0 0.02 0.02 0.02 99 1032.0
20260505124702 55 307 0.0 0.0 0.02 0.02 0.02 99 1032.0
20260505124200 55 307 0.0 0.0 0.02 0.02 0.02 99 1032.1
20260505123658 55 307 0.0 0.0 0.00 0.00 0.01 99 1032.1
20260505123206 55 307 0.0 0.0 0.00 0.00 0.00 99 1032.1
20260505122657 55 307 0.0 0.0 0.00 0.00 0.00 99 1032.2
20260505122154 55 307 0.0 0.0 0.00 0.00 0.00 99 1032.1
20260505121700 55 307 0.0 0.0 0.00 0.00 0.00 99 1032.1
20260505121152 55 307 0.0 0.0 0.00 0.00 0.00 99 1032.2
20260505120653 55 306 0.0 0.0 0.00 0.00 0.00 99 1032.1
20260505120154 54 306 0.0 0.0 0.00 0.00 0.00 99 1032.1
20260505115649 55 306 0.0 0.0 0.00 0.00 0.00 99 1032.1
20260505115142 54 306 0.0 0.0 0.00 0.00 0.00 99 1032.0
20260505114636 54 306 0.0 0.0 0.00 0.00 0.00 99 1032.0
20260505114530 54 306 0.0 0.0 0.00 0.00 0.00 99 1032.1
20260505113624 54 307 0.0 0.0 0.00 0.00 0.00 99 1032.1
20260505113118 54 307 0.0 0.0 0.00 0.00 0.00 98 1032.3
20260505112614 54 307 0.0 0.0 0.00 0.00 0.00 99 1032.3
20260505112106 54 306 0.0 0.0 0.00 0.00 0.00 99 1032.4
20260505111606 53 307 0.0 0.0 0.00 0.00 0.00 99 1032.4
20260505111055 53 307 0.0 0.0 0.00 0.00 0.00 99 1032.4
20260505110600 53 307 0.0 0.0 0.00 0.00 0.00 99 1032.3
20260505101954 52 307 0.0 0.0 0.00 0.00 0.00 97 1032.5
20260505101902 52 307 0.0 0.0 0.00 0.00 0.00 97 1032.5
20260505100942 52 307 0.0 0.0 0.00 0.00 0.00 97 1032.5
20260505100436 52 307 0.0 0.0 0.00 0.00 0.00 96 1032.6
20260505095932 53 307 0.0 0.0 0.00 0.00 0.00 96 1032.5
20260505095821 53 307 0.0 0.0 0.00 0.00 0.00 96 1032.6
20260505095108 54 307 0.0 0.0 0.00 0.00 0.00 96 1032.5
20260505093922 55 307 0.0 0.0 0.00 0.00 0.00 96 1032.5
20260505093422 55 307 0.0 0.0 0.00 0.00 0.00 97 1032.5
20260505092922 56 307 0.0 0.0 0.00 0.00 0.00 96 1032.5
20260505092417 56 307 0.0 0.0 0.00 0.00 0.00 96 1032.3
20260505091917 56 307 0.0 0.0 0.00 0.00 0.00 97 1032.4
20260505091416 56 307 0.0 0.0 0.00 0.00 0.00 97 1032.4
20260505090914 56 306 0.0 0.0 0.00 0.00 0.00 97 1032.5
20260505090414 56 307 0.0 0.0 0.00 0.00 0.00 96 1032.5
20260505090309 56 307 0.0 0.0 0.00 0.00 0.00 96 1032.6
20260505085414 56 307 0.0 0.0 0.00 0.00 0.00 96 1032.4
20260505084912 56 307 0.0 0.0 0.00 0.00 0.00 96 1032.5
20260505084412 57 307 0.0 0.0 0.00 0.00 0.00 96 1032.5
20260505083913 57 307 0.0 0.0 0.00 0.00 0.00 96 1032.4
20260505083412 57 307 0.0 0.0 0.00 0.00 0.00 96 1032.4
20260505082911 57 307 0.0 0.0 0.00 0.00 0.00 96 1032.4
20260505082413 57 307 0.0 0.0 0.00 0.00 0.00 96 1032.4
20260505081912 57 307 0.0 0.0 0.00 0.00 0.00 96 1032.4
20260505081413 57 306 0.0 0.0 0.00 0.00 0.00 96 1032.4
20260505080910 57 307 0.0 0.0 0.00 0.00 0.00 96 1032.4
20260505080418 57 307 0.0 0.0 0.00 0.00 0.00 96 1032.4
20260505075916 58 307 0.0 0.0 0.00 0.00 0.00 96 1032.5
20260505075752 58 307 0.0 0.0 0.00 0.00 0.00 96 1032.3
20260505074908 58 307 0.0 0.0 0.00 0.00 0.00 95 1032.3
20260505074547 58 306 0.0 0.0 0.00 0.00 0.00 95 1032.4
20260505073409 58 307 0.0 0.0 0.00 0.00 0.00 95 1032.3
20260505073255 58 307 0.0 0.0 0.00 0.00 0.00 95 1032.4
20260505072408 58 307 0.0 0.0 0.00 0.00 0.00 95 1032.4
20260505071913 58 307 0.0 0.0 0.00 0.00 0.00 95 1032.3
20260505071408 58 307 0.0 0.0 0.00 0.00 0.00 95 1032.3
20260505070909 58 307 0.0 0.0 0.00 0.00 0.00 95 1032.3
20260505070742 58 307 0.0 0.0 0.00 0.00 0.00 95 1032.2
20260505065859 58 307 0.0 0.0 0.00 0.00 0.00 95 1032.2
20260505065354 59 307 0.0 0.0 0.00 0.00 0.00 95 1032.3
20260505064847 59 307 0.0 0.0 0.00 0.00 0.00 95 1032.2
20260505064342 59 307 0.0 0.0 0.00 0.00 0.00 95 1032.2
20260505063835 59 307 0.0 0.0 0.00 0.00 0.00 95 1032.2
20260505063329 59 307 0.0 0.0 0.00 0.00 0.00 95 1032.2
20260505062823 59 307 0.0 0.0 0.00 0.00 0.00 95 1032.3
20260505062322 59 307 0.0 0.0 0.00 0.00 0.00 94 1032.1
20260505061812 59 307 0.0 0.0 0.00 0.00 0.00 94 1032.2
20260505061305 59 307 0.0 0.0 0.00 0.00 0.00 94 1032.2
20260505060800 59 307 0.0 0.0 0.00 0.00 0.00 93 1032.1
20260505060253 60 307 0.0 0.0 0.00 0.00 0.00 93 1032.1
20260505055747 60 307 0.0 0.0 0.00 0.00 0.00 93 1032.0
20260505055242 60 307 0.0 0.0 0.00 0.00 0.00 93 1032.0
20260505054735 60 307 0.0 0.0 0.00 0.00 0.00 93 1032.0
20260505054229 61 307 0.0 0.0 0.00 0.00 0.00 92 1031.9
20260505053723 61 307 0.0 0.0 0.00 0.00 0.00 92 1031.9
20260505053217 61 307 0.0 0.0 0.00 0.00 0.00 92 1031.9
20260505052711 61 307 0.0 0.0 0.00 0.00 0.00 92 1031.8
20260505052204 61 307 0.0 0.0 0.00 0.00 0.00 91 1031.8
20260505051659 62 308 0.0 0.0 0.00 0.00 0.00 91 1031.7
20260505051153 62 308 0.0 0.0 0.00 0.00 0.00 91 1031.8
20260505051043 62 308 0.0 0.0 0.00 0.00 0.00 90 1031.6
20260505050142 63 308 0.0 0.0 0.00 0.00 0.00 90 1031.7
20260505041547 66 309 0.0 0.0 0.00 0.00 0.00 85 1031.8
20260505041042 66 309 0.0 0.0 0.00 0.00 0.00 85 1031.8
20260505040911 66 309 0.0 0.0 0.00 0.00 0.00 84 1031.8
20260505040030 67 309 0.0 0.0 0.00 0.00 0.00 83 1031.8
20260505035526 67 309 0.0 0.0 0.00 0.00 0.00 82 1031.9
20260505035025 67 309 0.0 0.0 0.00 0.00 0.00 80 1031.9
20260505034525 68 309 0.0 0.0 0.00 0.00 0.00 78 1031.9
20260505034022 67 310 0.0 0.0 0.00 0.00 0.00 74 1032.0
20260505033523 68 310 0.0 0.0 0.00 0.00 0.00 72 1032.0
20260505033023 68 310 0.0 0.0 0.00 0.00 0.00 73 1032.0
20260505032523 68 310 0.0 0.0 0.00 0.00 0.00 73 1031.9
20260505032019 68 310 0.0 1.0 0.00 0.00 0.00 76 1031.9
20260505031518 68 310 0.0 1.0 0.00 0.00 0.00 75 1031.9
20260505031018 69 329 0.0 0.0 0.00 0.00 0.00 73 1031.8
20260505030517 69 357 0.0 0.0 0.00 0.00 0.00 70 1031.9
20260505030016 68 12 0.0 1.0 0.00 0.00 0.00 70 1031.8
20260505025514 68 18 0.0 1.0 0.00 0.00 0.00 69 1031.8
20260505025012 68 201 0.0 1.0 0.00 0.00 0.00 66 1031.8
20260505024514 68 218 1.0 2.0 0.00 0.00 0.00 67 1031.8
20260505024011 69 218 0.0 2.0 0.00 0.00 0.00 65 1031.8
20260505023512 69 273 0.0 0.0 0.00 0.00 0.00 68 1031.8
20260505023013 69 271 0.0 0.0 0.00 0.00 0.00 67 1031.8
20260505022511 68 242 0.0 2.0 0.00 0.00 0.00 69 1031.8
20260505022012 68 242 0.0 2.0 0.00 0.00 0.00 68 1031.9
20260505021902 68 253 0.0 2.0 0.00 0.00 0.00 69 1031.9
20260505021011 68 234 0.0 3.0 0.00 0.00 0.00 69 1032.0
20260505020512 68 235 0.0 3.0 0.00 0.00 0.00 68 1032.0
20260505020012 68 257 0.0 2.0 0.00 0.00 0.00 68 1031.9
20260505015902 68 174 0.0 2.0 0.00 0.00 0.00 68 1032.1
20260505015010 68 175 0.0 2.0 0.00 0.00 0.00 67 1032.2
20260505014902 68 201 0.0 3.0 0.00 0.00 0.00 67 1032.2
20260505014013 68 135 0.0 3.0 0.00 0.00 0.00 67 1032.2
20260505013512 68 241 0.0 2.0 0.00 0.00 0.00 67 1032.3
20260505013009 67 241 0.0 2.0 0.00 0.00 0.00 67 1032.3
20260505012508 67 150 0.0 2.0 0.00 0.00 0.00 67 1032.5
20260505012009 68 210 0.0 1.0 0.00 0.00 0.00 65 1032.5
20260505011506 69 151 0.0 2.0 0.00 0.00 0.00 65 1032.5
20260505011010 69 153 0.0 3.0 0.00 0.00 0.00 66 1032.6
20260505010509 69 59 0.0 3.0 0.00 0.00 0.00 65 1032.8
20260505010009 70 109 0.0 2.0 0.00 0.00 0.00 65 1032.8
20260505005504 70 317 0.0 1.0 0.00 0.00 0.00 65 1032.8
20260505004959 70 317 0.0 1.0 0.00 0.00 0.00 66 1032.9
20260505004452 70 316 0.0 1.0 0.00 0.00 0.00 66 1033.0
20260505003947 70 318 0.0 1.0 0.00 0.00 0.00 66 1033.1
20260505003447 70 338 0.0 1.0 0.00 0.00 0.00 68 1033.1
20260505002945 69 338 0.0 1.0 0.00 0.00 0.00 67 1033.2
20260505002445 70 292 0.0 1.0 0.00 0.00 0.00 64 1033.3
20260505001943 70 237 0.0 2.0 0.00 0.00 0.00 68 1033.4
20260505001442 69 5 0.0 2.0 0.00 0.00 0.00 69 1033.5
20260505000944 69 338 0.0 1.0 0.00 0.00 0.00 69 1033.5
20260505000834 68 0 0.0 2.0 0.00 0.00 0.00 68 1033.6
20260504235947 68 288 0.0 2.0 0.00 0.00 0.00 68 1033.6
20260504235445 67 277 0.0 0.0 0.00 0.00 0.00 68 1033.7
20260504234938 68 261 0.0 1.0 0.00 0.00 0.00 69 1033.9
20260504234437 67 266 0.0 1.0 0.00 0.00 0.00 70 1033.8
20260504233937 66 295 0.0 1.0 0.00 0.00 0.00 70 1033.9
20260504233433 66 290 0.0 1.0 0.00 0.00 0.00 70 1034.1
20260504232932 65 338 0.0 2.0 0.00 0.00 0.00 71 1034.1
20260504232430 65 325 0.0 3.0 0.00 0.00 0.00 70 1034.1
20260504231928 65 338 0.0 3.0 0.00 0.00 0.00 71 1034.1
20260504231428 65 306 0.0 2.0 0.00 0.00 0.00 71 1034.0
20260504230942 65 284 0.0 2.0 0.00 0.00 0.00 72 1034.1
20260504230816 65 336 0.0 2.0 0.00 0.00 0.00 71 1034.1
20260504225931 66 295 0.0 1.0 0.00 0.00 0.00 71 1034.2
20260504225427 66 341 0.0 2.0 0.00 0.00 0.00 70 1034.2
20260504224919 66 314 0.0 3.0 0.00 0.00 0.00 70 1034.2
20260504224414 66 327 0.0 3.0 0.00 0.00 0.00 72 1034.2
20260504223907 65 305 0.0 2.0 0.00 0.00 0.00 72 1034.3
20260504223401 65 284 0.0 4.0 0.00 0.00 0.00 72 1034.4
20260504222857 65 320 0.0 4.0 0.00 0.00 0.00 73 1034.5
20260504222350 64 331 0.0 3.0 0.00 0.00 0.00 73 1034.4
20260504221843 64 298 0.0 3.0 0.00 0.00 0.00 75 1034.3
20260504221337 63 283 0.0 3.0 0.00 0.00 0.00 76 1034.3
20260504220827 63 304 0.0 3.0 0.00 0.00 0.00 77 1034.3
20260504220720 62 288 0.0 3.0 0.00 0.00 0.00 75 1034.3
20260504215814 63 329 0.0 2.0 0.00 0.00 0.00 75 1034.2
20260504215308 63 312 0.0 1.0 0.00 0.00 0.00 77 1034.2
20260504214806 62 305 0.0 2.0 0.00 0.00 0.00 77 1034.2
20260504214253 61 313 0.0 2.0 0.00 0.00 0.00 79 1034.3
20260504214201 61 307 0.0 2.0 0.00 0.00 0.00 78 1034.2
20260504213246 61 308 0.0 2.0 0.00 0.00 0.00 79 1034.3
20260504212743 60 298 0.0 2.0 0.00 0.00 0.00 81 1034.3
20260504212245 59 317 0.0 2.0 0.00 0.00 0.00 83 1034.4
20260504211747 58 287 0.0 2.0 0.00 0.00 0.00 83 1034.5
20260504211243 58 291 0.0 0.0 0.00 0.00 0.00 86 1034.4
20260504210741 57 292 0.0 0.0 0.00 0.00 0.00 87 1034.3
20260504210239 56 260 0.0 2.0 0.00 0.00 0.00 88 1034.4
20260504205735 56 264 0.0 2.0 0.00 0.00 0.00 88 1034.3
20260504205233 56 303 0.0 0.0 0.00 0.00 0.00 88 1034.4
20260504204733 56 303 0.0 0.0 0.00 0.00 0.00 89 1034.4
20260504204234 56 291 0.0 0.0 0.00 0.00 0.00 89 1034.5
20260504203728 55 291 0.0 0.0 0.00 0.00 0.00 89 1034.4
20260504203224 55 291 0.0 0.0 0.00 0.00 0.00 89 1034.5
20260504202722 55 291 0.0 0.0 0.00 0.00 0.00 89 1034.5
20260504202223 55 291 0.0 0.0 0.00 0.00 0.00 89 1034.4
20260504201724 55 291 0.0 0.0 0.00 0.00 0.00 90 1034.5
20260504201224 55 291 0.0 0.0 0.00 0.00 0.00 90 1034.4
20260504200718 54 291 0.0 2.0 0.00 0.00 0.00 90 1034.4
20260504200212 54 291 0.0 2.0 0.00 0.00 0.00 90 1034.2
20260504195713 54 289 0.0 4.0 0.00 0.00 0.00 90 1034.2
20260504195212 53 311 0.0 4.0 0.00 0.00 0.00 90 1034.2
20260504194711 53 295 0.0 1.0 0.00 0.00 0.00 91 1034.1
20260504194212 53 317 0.0 0.0 0.00 0.00 0.00 91 1034.0
20260504193711 53 317 0.0 0.0 0.00 0.00 0.00 91 1034.0
20260504193215 53 318 0.0 0.0 0.00 0.00 0.00 91 1034.0
20260504192712 53 317 0.0 0.0 0.00 0.00 0.00 91 1034.1
20260504192207 53 317 0.0 1.0 0.00 0.00 0.00 91 1034.1
20260504191706 52 307 0.0 1.0 0.00 0.00 0.00 91 1034.0
20260504191600 52 289 0.0 0.0 0.00 0.00 0.00 92 1033.8
20260504190706 52 289 0.0 0.0 0.00 0.00 0.00 92 1033.8
20260504190207 52 289 0.0 0.0 0.00 0.00 0.00 92 1033.8
20260504185707 52 289 0.0 2.0 0.00 0.00 0.00 92 1033.8
20260504185555 52 289 0.0 3.0 0.00 0.00 0.00 92 1033.8
20260504184709 52 320 0.0 3.0 0.00 0.00 0.00 92 1033.7
20260504184207 52 279 0.0 4.0 0.00 0.00 0.00 92 1033.8
20260504183703 52 241 0.0 4.0 0.00 0.00 0.00 92 1033.8
20260504183209 52 287 0.0 4.0 0.00 0.00 0.00 93 1033.8
20260504182659 52 263 0.0 3.0 0.00 0.00 0.00 93 1033.9
20260504182153 52 262 1.0 3.0 0.00 0.00 0.00 93 1033.8
20260504181647 52 286 0.0 3.0 0.00 0.00 0.00 94 1033.9
20260504181141 52 246 0.0 3.0 0.00 0.00 0.00 94 1033.9
20260504180634 52 290 0.0 2.0 0.00 0.00 0.00 94 1033.9
20260504180130 51 269 0.0 2.0 0.00 0.00 0.00 95 1033.9
20260504180020 51 286 0.0 2.0 0.00 0.00 0.00 95 1034.0
20260504175117 51 261 0.0 1.0 0.00 0.00 0.00 95 1034.0
20260504174611 51 298 0.0 1.0 0.00 0.00 0.00 95 1034.0
20260504174104 51 299 0.0 1.0 0.00 0.00 0.00 95 1034.0
20260504173559 51 303 0.0 1.0 0.00 0.00 0.00 95 1034.0
20260504173054 51 304 0.0 1.0 0.00 0.00 0.00 95 1034.0
20260504172546 51 304 0.0 1.0 0.00 0.00 0.00 96 1034.1
20260504172041 51 305 0.0 1.0 0.00 0.00 0.00 96 1034.1
20260504171535 51 304 0.0 0.0 0.00 0.00 0.00 96 1034.1
20260504171029 50 304 0.0 0.0 0.00 0.00 0.00 96 1034.1
20260504170529 50 304 0.0 1.0 0.00 0.00 0.00 96 1034.2
20260504160411 51 324 0.0 1.0 0.00 0.00 0.00 93 1034.3